527  
ASUS41 KALY 172110  
RWRALY  
 
NEW YORK STATE HOURLY WEATHER ROUNDUP  
NATIONAL WEATHER SERVICE ALBANY NY  
500 PM EDT TUE JUL 17 2018  
 
NOTE: "FAIR" INDICATES FEW OR NO CLOUDS BELOW 12,000 FEET WITH NO  
SIGNIFICANT WEATHER AND/OR NO S TO VISIBILITY
.  
 
NYZ032-033-038>043-046>054-057>066-NYZ062>081-082-084-172200-  
EAST  
 
 
CITY SKY/WX TMP DP RH WIND PRES REMARKS
 
ALBANY CLOUDY 76 71 85 S7 29.76S  
GLENS FALLS FAIR 79 74 84 S9 29.72F  
POUGHKEEPSIE FAIR 73 69 87 S3 29.77S  
NEWBURGH DRIZZLE 72 72 100 W7 29.81R  
MONTGOMERY LGT RAIN 73 71 93 SW7 29.78S  
WHITE PLAINS LGT RAIN 71 70 96 S3 29.81R FOG  
ISLIP LGT RAIN 71 71 100 S5 29.84R FOG  
NEW YORK CITY TSTM 75 68 78 VRB3 29.80R  
CENTRAL PARK RAIN 71 70 96 CALM 29.83R FOG  

 
 
NYZ005>009-017-018-044>046-055-056-172200-  
CENTRAL  
 
 
CITY SKY/WX TMP DP RH WIND PRES REMARKS
 
FULTON FAIR 80 54 40 W17 29.83S  
SYRACUSE PTSUNNY 81 57 43 NW18G24 29.82R  
ROME FAIR 83 55 38 W10 29.80F  
ELMIRA FAIR 83 60 45 NW8 29.82R  
BINGHAMTON FAIR 74 60 61 N15 29.85R  
MONTICELLO N/A N/A N/A N/A MISG N/A  

 
 
NYZ026>034-041>043-087-172200-  
NORTH  
 
 
CITY SKY/WX TMP DP RH WIND PRES REMARKS
 
WATERTOWN FAIR 79 65 62 SW14G22 29.79R  
FORT DRUM NOT AVBL  
OGDENSBURG FAIR 81 58 44 N6 29.75S  
MASSENA PTSUNNY 81 56 42 NW7 29.75S  
SARANAC LAKE FAIR 76 55 48 W6 29.79F  
PLATTSBURGH FAIR 85 56 37 W7 29.72R  

 
 
NYZ001>004-010>016-019>021-085-172200-  
WEST  
 
 
CITY SKY/WX TMP DP RH WIND PRES REMARKS
 
NIAGARA FALLS FAIR 80 51 36 NW13G21 29.88S  
BUFFALO FAIR 82 52 35 NW17 29.88R  
DUNKIRK FAIR 79 56 45 W14 29.91S  
JAMESTOWN FAIR 73 54 51 NW16G24 29.95S  
WELLSVILLE PTSUNNY 74 55 51 NW14 29.93R  
ROCHESTER FAIR 81 49 32 NW20G28 29.86R  
PENN YAN PTSUNNY 81 54 39 W9G17 29.86R  

 
 
KEY  
WCI = WIND CHILL INDEX  
VSB = VISIBILITY  
HX = HEAT INDEX  

 
 
 
CLICK HERE TO GO TO PREVIOUS BULLETINS.

The Nexlab NY Page
The Nexlab VT Page
The Nexlab MA Page
The Nexlab CT Page Main Text Page